Weather History for Haines, AK

Change the Weather History Date:

Thursday, October 4, 2012

  Actual Average Record
Temperature  
Mean Temperature 43 °F -  
Max Temperature 46 °F 48 °F 58 °F (1988)
Min Temperature 41 °F 40 °F 20 °F (1974)
Degree Days  
Heating Degree Days 22    
Moisture  
Dew Point 43 °F    
Average Humidity 97    
Maximum Humidity 100    
Minimum Humidity 89    
Precipitation  
Precipitation 0.09 in - - ()
Sea Level Pressure  
Sea Level Pressure 30.50 in    
Wind  
Wind Speed 2 mph (SE)    
Max Wind Speed 6 mph    
Max Gust Speed -    
Visibility 4 miles    
Events Rain    
Averages and records for this station are not official NWS values.
T = Trace of Precipitation, MM = Missing Value Source: NWS Daily Summary

Daily Weather History Graph

Daily Weather History Graph

Search for Another Location

Airport:

Trip Planner

Search our weather history database for the weather conditions in past years. The results will help you decide how hot, cold, wet, or windy it might be!

Date:

Astronomy

Oct. 04, 2012 Rise Set
Actual Time 7:15 AM AKDT 6:24 PM AKDT
Civil Twilight 6:34 AM AKDT 7:04 PM AKDT
Nautical Twilight 5:47 AM AKDT 7:51 PM AKDT
Astronomical Twilight 4:58 AM AKDT 8:40 PM AKDT
Moon 7:55 PM AKDT (10/4) 12:49 PM AKDT (10/4)
Length of Visible Light 12h 29m
Length of Day
11h 08m
Waning Gibbous, 81% of the Moon is Illuminated
Oct 4
Waning Gibbous
Oct 7
Last Quarter
Oct 15
New
Oct 21
First Quarter
Oct 29
Full

Hourly Weather History & Observations

Time (AKDT) Temp. Windchill Dew Point Humidity Pressure Visibility Wind Dir Wind Speed Gust Speed Precip Events Conditions
12:54 AM 41.0 °F - 39.9 °F 96% 30.51 in 10.0 mi Calm Calm - N/A   Overcast
1:54 AM 41.0 °F - 39.9 °F 96% 30.51 in 10.0 mi Calm Calm - N/A   Overcast
2:54 AM 41.0 °F 38.0 °F 39.0 °F 93% 30.51 in 10.0 mi WNW 4.6 mph - N/A   Overcast
3:54 AM 41.0 °F - 39.0 °F 93% 30.50 in 10.0 mi Calm Calm - N/A   Overcast
4:54 AM 41.0 °F 37.1 °F 39.0 °F 93% 30.50 in 10.0 mi WNW 5.8 mph - N/A   Overcast
5:54 AM 41.0 °F 39.0 °F 39.0 °F 93% 30.50 in 10.0 mi WNW 3.5 mph - N/A   Overcast
6:17 AM 41.0 °F - 39.2 °F 93% 30.49 in 10.0 mi Calm Calm - N/A   Overcast
6:54 AM 41.0 °F - 39.9 °F 96% 30.49 in 10.0 mi Calm Calm - N/A   Overcast
7:54 AM 41.0 °F - 39.9 °F 96% 30.49 in 10.0 mi Calm Calm - N/A   Overcast
8:54 AM 42.1 °F 39.2 °F 39.0 °F 89% 30.50 in 10.0 mi WNW 4.6 mph - N/A   Overcast
9:54 AM 43.0 °F - 41.0 °F 93% 30.50 in 10.0 mi Calm Calm - N/A   Overcast
10:54 AM 43.0 °F - 39.9 °F 89% 30.51 in 6.0 mi Calm Calm - N/A   Overcast
11:54 AM 45.0 °F 41.8 °F 43.0 °F 93% 30.51 in 8.0 mi East 5.8 mph - N/A   Overcast
12:54 PM 45.0 °F 42.6 °F 43.0 °F 93% 30.51 in 5.0 mi SE 4.6 mph - N/A   Overcast
1:13 PM 44.6 °F - 44.6 °F 100% 30.51 in 2.5 mi Calm Calm - N/A   Overcast
1:29 PM 44.6 °F 43.1 °F 44.6 °F 100% 30.51 in 3.0 mi East 3.5 mph - N/A   Overcast
1:49 PM 44.6 °F 41.4 °F 44.6 °F 100% 30.51 in 2.5 mi ESE 5.8 mph - N/A   Overcast
1:54 PM 45.0 °F 41.8 °F 44.1 °F 97% 30.52 in 3.0 mi ESE 5.8 mph - N/A   Overcast
2:18 PM 44.6 °F 42.2 °F 44.6 °F 100% 30.51 in 2.5 mi ESE 4.6 mph - N/A   Overcast
2:54 PM 45.0 °F 42.6 °F 44.1 °F 97% 30.52 in 2.0 mi SE 4.6 mph - N/A   Overcast
3:31 PM 44.6 °F 42.2 °F 44.6 °F 100% 30.50 in 1.8 mi SE 4.6 mph - N/A   Overcast
3:40 PM 44.6 °F 42.2 °F 44.6 °F 100% 30.50 in 2.5 mi South 4.6 mph - N/A   Overcast
3:54 PM 45.0 °F 42.6 °F 44.1 °F 97% 30.50 in 2.5 mi SE 4.6 mph - N/A   Overcast
4:20 PM 44.6 °F 41.4 °F 44.6 °F 100% 30.49 in 3.0 mi SE 5.8 mph - 0.01 in   Overcast
4:40 PM 44.6 °F 41.4 °F 44.6 °F 100% 30.49 in 2.0 mi SE 5.8 mph - 0.01 in   Overcast
4:54 PM 45.0 °F 43.5 °F 44.1 °F 97% 30.50 in 1.8 mi SSE 3.5 mph - 0.01 in   Overcast
5:04 PM 44.6 °F - 44.6 °F 100% 30.49 in 1.8 mi Calm Calm - N/A   Overcast
5:43 PM 44.6 °F - 44.6 °F 100% 30.50 in 2.0 mi Calm Calm - 0.01 in   Overcast
5:51 PM 44.6 °F - 44.6 °F 100% 30.50 in 2.0 mi Calm Calm - 0.02 in Rain Light Rain
5:54 PM 45.0 °F - 44.1 °F 97% 30.51 in 2.0 mi Calm Calm - 0.02 in Rain Light Rain
6:18 PM 44.6 °F - 44.6 °F 100% 30.49 in 1.8 mi Calm Calm - 0.00 in   Overcast
6:28 PM 44.6 °F - 44.6 °F 100% 30.49 in 2.5 mi Calm Calm - 0.00 in   Overcast
6:49 PM 44.6 °F - 44.6 °F 100% 30.50 in 3.0 mi Calm Calm - 0.01 in   Overcast
6:54 PM 45.0 °F - 44.1 °F 97% 30.50 in 3.0 mi Calm Calm - 0.01 in Rain Light Rain
7:54 PM 44.1 °F - 44.1 °F 100% 30.50 in 2.5 mi Calm Calm - 0.01 in   Overcast
8:26 PM 44.6 °F - 44.6 °F 100% 30.49 in 3.0 mi Calm Calm - 0.00 in Rain Light Rain
8:32 PM 44.6 °F - 44.6 °F 100% 30.49 in 2.5 mi Calm Calm - 0.01 in   Overcast
8:54 PM 44.1 °F - 44.1 °F 100% 30.51 in 2.5 mi Calm Calm - 0.01 in Rain Light Rain
9:03 PM 44.6 °F - 44.6 °F 100% 30.50 in 3.0 mi Calm Calm - 0.00 in Rain Light Rain
9:54 PM 45.0 °F - 44.1 °F 97% 30.51 in 3.0 mi Calm Calm - 0.02 in   Overcast
10:14 PM 44.6 °F - 44.6 °F 100% 30.51 in 3.0 mi Calm Calm - N/A   Overcast
10:24 PM 44.6 °F 43.1 °F 42.8 °F 93% 30.51 in 2.0 mi West 3.5 mph - N/A   Overcast
10:49 PM 44.6 °F - 44.6 °F 100% 30.51 in 3.0 mi Calm Calm - N/A   Overcast
10:54 PM 44.1 °F - 44.1 °F 100% 30.53 in 3.0 mi Calm Calm - 0.01 in   Overcast
11:05 PM 44.6 °F - 44.6 °F 100% 30.51 in 2.0 mi Calm Calm - N/A   Overcast
11:17 PM 44.6 °F - 44.6 °F 100% 30.52 in 4.0 mi Calm Calm - N/A   Overcast
11:54 PM 45.0 °F - 44.1 °F 97% 30.52 in 2.5 mi Calm Calm - N/A   Overcast